TimeCDT,TemperatureF,Dew PointF,Humidity,Sea Level PressureIn,VisibilityMPH,Wind Direction,Wind SpeedMPH,Gust SpeedMPH,PrecipitationIn,Events,Conditions,WindDirDegrees,DateUTC
12:15 AM,69.8,64.4,83,30.18,10.0,North,4.6,-,N/A,,Partly Cloudy,10,2013-09-12 05:15:00
12:35 AM,69.8,64.4,83,30.18,10.0,NNE,4.6,-,N/A,,Clear,20,2013-09-12 05:35:00
12:55 AM,69.8,64.4,83,30.18,10.0,NNE,4.6,-,N/A,,Clear,30,2013-09-12 05:55:00
1:15 AM,69.8,64.4,83,30.18,10.0,NNE,4.6,-,N/A,,Clear,30,2013-09-12 06:15:00
1:35 AM,69.8,64.4,83,30.18,10.0,NE,5.8,-,N/A,,Clear,40,2013-09-12 06:35:00
1:55 AM,69.8,64.4,83,30.18,10.0,NE,5.8,-,N/A,,Scattered Clouds,40,2013-09-12 06:55:00
2:15 AM,69.8,64.4,83,30.18,10.0,NE,6.9,-,N/A,,Scattered Clouds,50,2013-09-12 07:15:00
2:35 AM,69.8,64.4,83,30.19,10.0,ENE,8.1,-,N/A,,Partly Cloudy,70,2013-09-12 07:35:00
2:55 AM,69.8,64.4,83,30.19,10.0,ENE,10.4,-,N/A,,Scattered Clouds,70,2013-09-12 07:55:00
3:15 AM,69.8,64.4,83,30.19,10.0,East,12.7,-,N/A,,Overcast,80,2013-09-12 08:15:00
3:35 AM,69.8,64.4,83,30.19,10.0,ENE,10.4,-,N/A,,Overcast,70,2013-09-12 08:35:00
3:55 AM,69.8,64.4,83,30.18,10.0,East,11.5,16.1,N/A,,Overcast,80,2013-09-12 08:55:00
4:15 AM,69.8,62.6,78,30.19,10.0,ENE,12.7,-,N/A,,Overcast,70,2013-09-12 09:15:00
4:35 AM,68.0,64.4,88,30.19,9.0,East,10.4,-,N/A,,Overcast,80,2013-09-12 09:35:00
4:55 AM,68.0,62.6,83,30.18,9.0,East,8.1,-,N/A,,Overcast,80,2013-09-12 09:55:00
5:15 AM,68.0,62.6,83,30.18,10.0,ENE,8.1,-,N/A,,Overcast,70,2013-09-12 10:15:00
5:35 AM,68.0,62.6,83,30.18,10.0,East,9.2,-,N/A,,Overcast,80,2013-09-12 10:35:00
5:55 AM,68.0,62.6,83,30.18,10.0,East,8.1,-,N/A,,Mostly Cloudy,80,2013-09-12 10:55:00
6:15 AM,68.0,62.6,83,30.18,10.0,East,6.9,-,N/A,,Scattered Clouds,80,2013-09-12 11:15:00
6:35 AM,68.0,62.6,83,30.19,10.0,East,6.9,-,N/A,,Mostly Cloudy,80,2013-09-12 11:35:00
6:55 AM,68.0,62.6,83,30.19,10.0,ENE,6.9,-,N/A,,Overcast,70,2013-09-12 11:55:00
7:15 AM,68.0,62.6,83,30.19,10.0,ENE,8.1,-,N/A,,Mostly Cloudy,70,2013-09-12 12:15:00
7:35 AM,68.0,64.4,88,30.21,8.0,ENE,8.1,-,0.01,,Mostly Cloudy,70,2013-09-12 12:35:00
7:55 AM,68.0,62.6,83,30.20,6.0,East,12.7,-,0.01,,Mostly Cloudy,80,2013-09-12 12:55:00
8:15 AM,68.0,62.6,83,30.21,8.0,East,9.2,-,0.01,,Partly Cloudy,90,2013-09-12 13:15:00
8:35 AM,68.0,64.4,88,30.21,9.0,East,11.5,-,0.01,,Mostly Cloudy,90,2013-09-12 13:35:00
8:55 AM,68.0,62.6,83,30.21,10.0,East,11.5,-,0.01,,Mostly Cloudy,90,2013-09-12 13:55:00
9:15 AM,68.0,62.6,83,30.22,9.0,East,12.7,-,N/A,,Overcast,90,2013-09-12 14:15:00
9:35 AM,68.0,64.4,88,30.22,9.0,East,11.5,-,N/A,,Overcast,100,2013-09-12 14:35:00
9:55 AM,69.8,64.4,83,30.23,10.0,East,10.4,-,N/A,,Overcast,90,2013-09-12 14:55:00
10:15 AM,69.8,64.4,83,30.23,10.0,ENE,10.4,-,N/A,,Overcast,70,2013-09-12 15:15:00
10:35 AM,69.8,64.4,83,30.23,10.0,East,9.2,-,N/A,,Mostly Cloudy,90,2013-09-12 15:35:00
10:55 AM,71.6,66.2,83,30.23,10.0,East,9.2,-,N/A,,Mostly Cloudy,100,2013-09-12 15:55:00
11:15 AM,71.6,64.4,78,30.24,10.0,ESE,10.4,-,N/A,,Mostly Cloudy,110,2013-09-12 16:15:00
11:35 AM,71.6,66.2,83,30.23,10.0,East,9.2,-,N/A,,Mostly Cloudy,100,2013-09-12 16:35:00
11:55 AM,71.6,66.2,83,30.23,10.0,East,10.4,-,N/A,,Partly Cloudy,90,2013-09-12 16:55:00
12:15 PM,73.4,66.2,78,30.23,10.0,East,10.4,-,N/A,,Clear,100,2013-09-12 17:15:00
12:35 PM,75.2,66.2,73,30.22,10.0,East,9.2,-,N/A,,Clear,100,2013-09-12 17:35:00
12:55 PM,75.2,66.2,73,30.22,10.0,East,10.4,-,N/A,,Clear,100,2013-09-12 17:55:00
1:15 PM,77.0,66.2,69,30.22,10.0,East,6.9,-,N/A,,Clear,90,2013-09-12 18:15:00
1:35 PM,78.8,66.2,65,30.21,10.0,East,9.2,-,N/A,,Clear,90,2013-09-12 18:35:00
1:55 PM,78.8,66.2,65,30.20,10.0,East,10.4,-,N/A,,Clear,90,2013-09-12 18:55:00
2:15 PM,78.8,64.4,61,30.19,10.0,East,10.4,-,N/A,,Clear,90,2013-09-12 19:15:00
2:35 PM,80.6,64.4,58,30.18,10.0,East,10.4,-,N/A,,Clear,90,2013-09-12 19:35:00
2:55 PM,82.4,64.4,54,30.18,10.0,ENE,10.4,-,N/A,,Clear,60,2013-09-12 19:55:00
3:15 PM,82.4,64.4,54,30.17,10.0,ENE,11.5,-,N/A,,Clear,60,2013-09-12 20:15:00
3:35 PM,82.4,64.4,54,30.16,10.0,ENE,13.8,18.4,N/A,,Clear,70,2013-09-12 20:35:00
3:55 PM,82.4,64.4,54,30.15,10.0,East,11.5,-,N/A,,Clear,90,2013-09-12 20:55:00
4:15 PM,82.4,64.4,54,30.15,10.0,East,10.4,-,N/A,,Clear,100,2013-09-12 21:15:00
4:35 PM,82.4,62.6,51,30.14,10.0,East,13.8,-,N/A,,Clear,80,2013-09-12 21:35:00
4:55 PM,80.6,62.6,54,30.14,10.0,East,15.0,-,N/A,,Clear,90,2013-09-12 21:55:00
5:15 PM,80.6,62.6,54,30.14,10.0,East,13.8,-,N/A,,Clear,80,2013-09-12 22:15:00
5:35 PM,80.6,62.6,54,30.14,10.0,East,12.7,-,N/A,,Clear,80,2013-09-12 22:35:00
5:55 PM,80.6,62.6,54,30.14,10.0,East,13.8,-,N/A,,Clear,80,2013-09-12 22:55:00
6:15 PM,78.8,60.8,54,30.14,10.0,East,11.5,-,N/A,,Clear,90,2013-09-12 23:15:00
6:35 PM,78.8,60.8,54,30.14,10.0,East,12.7,19.6,N/A,,Clear,90,2013-09-12 23:35:00
6:55 PM,78.8,62.6,57,30.14,10.0,East,17.3,20.7,N/A,,Clear,90,2013-09-12 23:55:00
7:15 PM,77.0,62.6,61,30.14,10.0,East,15.0,-,N/A,,Partly Cloudy,80,2013-09-13 00:15:00
7:35 PM,75.2,62.6,65,30.14,10.0,East,12.7,-,N/A,,Clear,80,2013-09-13 00:35:00
7:55 PM,73.4,62.6,69,30.14,10.0,ENE,16.1,20.7,N/A,,Clear,70,2013-09-13 00:55:00
8:15 PM,73.4,62.6,69,30.15,10.0,East,15.0,-,N/A,,Clear,80,2013-09-13 01:15:00
8:35 PM,73.4,62.6,69,30.15,10.0,East,18.4,-,N/A,,Clear,80,2013-09-13 01:35:00
8:55 PM,71.6,62.6,73,30.16,10.0,East,15.0,-,N/A,,Partly Cloudy,80,2013-09-13 01:55:00
9:15 PM,71.6,62.6,73,30.17,10.0,East,19.6,25.3,N/A,,Partly Cloudy,90,2013-09-13 02:15:00
9:35 PM,71.6,62.6,73,30.18,10.0,East,12.7,-,N/A,,Partly Cloudy,80,2013-09-13 02:35:00
9:55 PM,69.8,62.6,78,30.18,10.0,East,16.1,20.7,N/A,,Clear,90,2013-09-13 02:55:00
10:15 PM,69.8,62.6,78,30.18,10.0,East,15.0,21.9,N/A,,Scattered Clouds,90,2013-09-13 03:15:00
10:35 PM,69.8,62.6,78,30.19,10.0,East,15.0,-,N/A,,Mostly Cloudy,90,2013-09-13 03:35:00
10:55 PM,69.8,62.6,78,30.18,10.0,East,17.3,23.0,N/A,,Overcast,100,2013-09-13 03:55:00
11:15 PM,69.8,62.6,78,30.18,10.0,East,17.3,20.7,N/A,,Overcast,100,2013-09-13 04:15:00
11:35 PM,69.8,62.6,78,30.18,10.0,East,15.0,21.9,N/A,,Mostly Cloudy,100,2013-09-13 04:35:00
11:55 PM,69.8,62.6,78,30.18,9.0,East,11.5,-,N/A,,Overcast,100,2013-09-13 04:55:00